Location: Hains Lake
(37.8540°N, 99.8578°W)
Time: 09:26:00
(UTC+00:00)

Tiros 1 despin weight - Pass Details

Date: 26 April 2021
Orbit: 593 x 642 km, 48.2° (Epoch: 07 May)

Event Time Altitude Azimuth Distance (km) Brightness Sun altitude
Rises 11:47:58 0° 288° (WNW) 2,920 ? -1.1°
Reaches altitude 10° 11:50:45 10° 303° (WNW) 2,004 ? -0.5°
Maximum altitude 11:54:22 22° 355° (N) 1,354 ? 0.1°
Drops below altitude 10° 11:57:58 10° 48° (NE) 1,980 ? 0.8°
Sets 12:00:42 0° 63° (ENE) 2,875 ? 1.3°
